DKH124 ZSPD-RKSI

Flight info

Callsign DKH124
Flight time N/A
Altitude 35000
Route LAM84D LAMEN A593 SADLI Y590 ELGEP Y722 OLMEN OLMEN2H
Aircraft A321/M-SDE3FGHIRWY/LB1

Departure

Time 2026-05-05 13:52
Airport Shanghai Pudong International Airport (ZSPD)

Arrival

Time N/A
Airport Incheon International Airport (RKSI)
Time Latitude Longitude Altitude Speed Heading
2026-05-05 13:12 31.15501 121.80678 23 ft 0 kts 252°
2026-05-05 13:39 31.15502 121.80681 88 ft 3 kts 252°
2026-05-05 13:39 31.15507 121.80702 23 ft 3 kts 252°
2026-05-05 13:40 31.15513 121.80723 23 ft 3 kts 255°
2026-05-05 13:40 31.15515 121.80744 23 ft 3 kts 276°
2026-05-05 13:40 31.15513 121.80766 23 ft 3 kts 303°
2026-05-05 13:40 31.15503 121.80778 25 ft 0 kts 346°
2026-05-05 13:42 31.15503 121.80777 25 ft 1 kts 346°
2026-05-05 13:42 31.15524 121.80772 26 ft 3 kts 346°
2026-05-05 13:43 31.15541 121.80767 23 ft 2 kts 345°
2026-05-05 13:43 31.15561 121.80759 24 ft 4 kts 342°
2026-05-05 13:43 31.15600 121.80745 25 ft 8 kts 342°
2026-05-05 13:43 31.15648 121.80727 23 ft 7 kts 342°
2026-05-05 13:44 31.15686 121.80713 23 ft 5 kts 342°
2026-05-05 13:44 31.15714 121.80704 23 ft 3 kts 349°
2026-05-05 13:44 31.15739 121.80710 23 ft 5 kts 24°
2026-05-05 13:44 31.15767 121.80763 23 ft 9 kts 70°
2026-05-05 13:45 31.15786 121.80830 23 ft 8 kts 72°
2026-05-05 13:45 31.15803 121.80888 23 ft 7 kts 71°
2026-05-05 13:45 31.15809 121.80911 22 ft 0 kts 71°
2026-05-05 13:46 31.15810 121.80915 22 ft 3 kts 71°
2026-05-05 13:47 31.15821 121.80952 22 ft 11 kts 72°
2026-05-05 13:47 31.15843 121.81035 22 ft 10 kts 72°
2026-05-05 13:47 31.15851 121.81063 22 ft 0 kts 72°
2026-05-05 13:49 31.15853 121.81068 22 ft 4 kts 72°
2026-05-05 13:50 31.15862 121.81103 22 ft 8 kts 72°
2026-05-05 13:50 31.15864 121.81165 23 ft 7 kts 108°
2026-05-05 13:50 31.15835 121.81202 24 ft 6 kts 153°
2026-05-05 13:50 31.15826 121.81206 22 ft 0 kts 159°
2026-05-05 13:51 31.15788 121.81222 22 ft 29 kts 161°
2026-05-05 13:52 31.15368 121.81379 22 ft 96 kts 162°
2026-05-05 13:52 31.14563 121.81684 23 ft 146 kts 162°
2026-05-05 13:52 31.13118 121.82227 488 ft 156 kts 161°
2026-05-05 13:52 31.12449 121.82495 926 ft 153 kts 161°
2026-05-05 13:53 31.11405 121.82944 1215 ft 171 kts 164°
2026-05-05 13:53 31.10193 121.83399 1483 ft 187 kts 166°
2026-05-05 13:53 31.08977 121.83936 2036 ft 197 kts 149°
2026-05-05 13:54 31.04901 121.87524 3335 ft 251 kts 145°
2026-05-05 13:54 31.03481 121.88745 4081 ft 257 kts 145°
2026-05-05 13:54 31.02029 121.89985 4792 ft 262 kts 144°
2026-05-05 13:55 31.00604 121.91305 5427 ft 268 kts 139°
2026-05-05 13:55 30.99205 121.92768 6130 ft 272 kts 138°
2026-05-05 13:55 30.97797 121.94272 6823 ft 276 kts 137°
2026-05-05 13:55 30.96376 121.95797 7488 ft 279 kts 138°
2026-05-05 13:56 30.94957 121.97364 8165 ft 283 kts 131°
2026-05-05 13:56 30.93950 121.99342 8803 ft 288 kts 108°
2026-05-05 13:56 30.93671 122.01652 9450 ft 292 kts 85°
2026-05-05 13:56 30.94139 122.03960 10084 ft 296 kts 72°
2026-05-05 13:57 30.94800 122.06289 10377 ft 313 kts 71°
2026-05-05 13:57 30.95494 122.08743 10496 ft 334 kts 72°
2026-05-05 13:57 30.96240 122.11395 10621 ft 354 kts 72°
2026-05-05 13:57 30.97023 122.14201 10740 ft 373 kts 72°
2026-05-05 13:58 30.97839 122.17148 10862 ft 391 kts 72°
2026-05-05 13:58 30.98686 122.20211 11150 ft 402 kts 72°
2026-05-05 13:58 30.99532 122.23342 11580 ft 407 kts 75°
2026-05-05 13:58 30.99987 122.26610 12085 ft 411 kts 87°
2026-05-05 13:59 31.00004 122.33300 12992 ft 420 kts 90°
2026-05-05 13:59 30.99999 122.36711 13504 ft 423 kts 90°
2026-05-05 14:00 31.00000 122.43640 14353 ft 431 kts 90°
2026-05-05 14:00 31.00003 122.45958 14660 ft 432 kts 90°
2026-05-05 14:00 31.00012 122.50667 15212 ft 437 kts 90°
2026-05-05 14:00 31.00018 122.54215 15681 ft 438 kts 89°
2026-05-05 14:01 31.00024 122.57784 16092 ft 442 kts 89°
2026-05-05 14:01 31.00029 122.61325 16518 ft 444 kts 89°
2026-05-05 14:01 31.00032 122.64938 16945 ft 447 kts 89°
2026-05-05 14:01 31.00032 122.68577 17334 ft 451 kts 89°
2026-05-05 14:02 31.00030 122.72242 17782 ft 453 kts 90°
2026-05-05 14:02 31.00029 122.75927 18188 ft 457 kts 89°
2026-05-05 14:02 31.00029 122.79637 18580 ft 459 kts 89°
2026-05-05 14:02 31.00028 122.83369 18955 ft 461 kts 89°
2026-05-05 14:03 31.00024 122.87121 19314 ft 464 kts 89°
2026-05-05 14:03 31.00020 122.90839 19687 ft 466 kts 90°
2026-05-05 14:03 31.00104 122.94620 20039 ft 468 kts 84°
2026-05-05 14:03 31.00659 122.98353 20393 ft 469 kts 74°
2026-05-05 14:04 31.01727 123.01949 20745 ft 470 kts 64°
2026-05-05 14:04 31.03280 123.05297 21080 ft 470 kts 55°
2026-05-05 14:04 31.05176 123.08409 21423 ft 472 kts 52°
2026-05-05 14:04 31.07101 123.11523 21760 ft 474 kts 52°
2026-05-05 14:05 31.09028 123.14657 22099 ft 477 kts 53°
2026-05-05 14:05 31.10934 123.17776 22383 ft 480 kts 53°
2026-05-05 14:05 31.12875 123.20957 22685 ft 483 kts 53°
2026-05-05 14:05 31.14826 123.24160 22988 ft 485 kts 53°
2026-05-05 14:06 31.16784 123.27377 23300 ft 487 kts 53°
2026-05-05 14:06 31.18757 123.30609 23620 ft 490 kts 53°
2026-05-05 14:06 31.20741 123.33856 23887 ft 492 kts 53°
2026-05-05 14:06 31.22734 123.37119 24129 ft 495 kts 53°
2026-05-05 14:07 31.24738 123.40402 24376 ft 498 kts 53°
2026-05-05 14:07 31.26753 123.43715 24602 ft 501 kts 53°
2026-05-05 14:07 31.28747 123.46995 24814 ft 503 kts 53°
2026-05-05 14:07 31.30779 123.50338 25036 ft 506 kts 53°
2026-05-05 14:08 31.32813 123.53694 25309 ft 506 kts 53°
2026-05-05 14:08 31.34852 123.57056 25602 ft 507 kts 53°
2026-05-05 14:08 31.36897 123.60417 25877 ft 507 kts 53°
2026-05-05 14:08 31.38954 123.63779 26155 ft 508 kts 53°
2026-05-05 14:09 31.41015 123.67138 26468 ft 508 kts 53°
2026-05-05 14:09 31.43075 123.70497 26775 ft 508 kts 53°
2026-05-05 14:09 31.45111 123.73822 27001 ft 510 kts 53°
2026-05-05 14:09 31.47178 123.77208 27260 ft 511 kts 53°
2026-05-05 14:10 31.49247 123.80601 27537 ft 512 kts 53°
2026-05-05 14:10 31.51315 123.84003 27810 ft 513 kts 53°
2026-05-05 14:10 31.53384 123.87414 28086 ft 514 kts 53°
2026-05-05 14:10 31.55451 123.90831 28360 ft 514 kts 53°
2026-05-05 14:11 31.57523 123.94251 28634 ft 515 kts 53°
2026-05-05 14:11 31.59518 123.97741 28836 ft 517 kts 59°
2026-05-05 14:11 31.61114 124.01534 29010 ft 520 kts 69°
2026-05-05 14:11 31.62248 124.05554 29254 ft 519 kts 77°
2026-05-05 14:12 31.63144 124.09604 29509 ft 520 kts 77°
2026-05-05 14:12 31.64057 124.13714 29772 ft 521 kts 77°
2026-05-05 14:12 31.64977 124.17827 30030 ft 521 kts 77°
2026-05-05 14:12 31.65900 124.21939 30264 ft 522 kts 77°
2026-05-05 14:13 31.66824 124.26068 30416 ft 524 kts 77°
2026-05-05 14:13 31.67745 124.30216 30637 ft 525 kts 77°
2026-05-05 14:13 31.68661 124.34360 30903 ft 524 kts 77°
2026-05-05 14:13 31.69577 124.38502 31144 ft 524 kts 77°
2026-05-05 14:14 31.70494 124.42648 31381 ft 525 kts 77°
2026-05-05 14:14 31.71396 124.46742 31595 ft 525 kts 77°
2026-05-05 14:14 31.72310 124.50896 31758 ft 527 kts 78°
2026-05-05 14:14 31.73227 124.55077 31928 ft 529 kts 78°
2026-05-05 14:15 31.74144 124.59261 32138 ft 530 kts 78°
2026-05-05 14:15 31.75066 124.63454 32365 ft 530 kts 78°
2026-05-05 14:15 31.75984 124.67653 32580 ft 531 kts 78°
2026-05-05 14:15 31.76899 124.71856 32835 ft 531 kts 77°
2026-05-05 14:16 31.77815 124.76061 33044 ft 532 kts 78°
2026-05-05 14:16 31.78734 124.80278 33206 ft 533 kts 78°
2026-05-05 14:16 31.79642 124.84448 33405 ft 534 kts 78°
2026-05-05 14:16 31.80563 124.88685 33621 ft 535 kts 78°
2026-05-05 14:17 31.81480 124.92924 33838 ft 535 kts 79°
2026-05-05 14:17 31.82157 124.97211 34041 ft 532 kts 88°
2026-05-05 14:17 31.82333 125.01526 34196 ft 527 kts 97°
2026-05-05 14:17 31.82034 125.05796 34315 ft 522 kts 105°
2026-05-05 14:18 31.81379 125.09982 34454 ft 520 kts 108°
2026-05-05 14:18 31.80693 125.14159 34624 ft 521 kts 107°
2026-05-05 14:18 31.80005 125.18341 34808 ft 521 kts 107°
2026-05-05 14:18 31.79327 125.22466 34984 ft 521 kts 107°
2026-05-05 14:19 31.78639 125.26652 35115 ft 523 kts 108°
2026-05-05 14:19 31.77945 125.30855 35152 ft 525 kts 108°
2026-05-05 14:19 31.76555 125.39288 35152 ft 526 kts 108°
2026-05-05 14:20 31.75167 125.47723 35152 ft 526 kts 108°
2026-05-05 14:20 31.74499 125.56317 35159 ft 541 kts 86°
2026-05-05 14:21 31.75359 125.60576 35157 ft 548 kts 70°
2026-05-05 14:21 31.77131 125.64536 35159 ft 549 kts 53°
2026-05-05 14:21 31.82005 125.71422 35150 ft 549 kts 48°
2026-05-05 14:22 31.86932 125.78290 35120 ft 550 kts 48°
2026-05-05 14:22 31.91857 125.85197 35163 ft 551 kts 48°
2026-05-05 14:23 31.96740 125.92070 35167 ft 551 kts 48°
2026-05-05 14:23 32.01653 125.98988 35168 ft 550 kts 47°
2026-05-05 14:24 32.07270 126.04984 35191 ft 541 kts 29°
2026-05-05 14:24 32.13882 126.08938 35186 ft 527 kts 13°
2026-05-05 14:25 32.20733 126.11823 35180 ft 526 kts 13°
2026-05-05 14:25 32.27602 126.14743 35190 ft 523 kts 14°
2026-05-05 14:26 32.34442 126.17656 35179 ft 522 kts 13°
2026-05-05 14:26 32.41278 126.20570 35207 ft 522 kts 14°
2026-05-05 14:27 32.48058 126.23464 35184 ft 521 kts 14°
2026-05-05 14:27 32.54878 126.26386 35159 ft 521 kts 13°
2026-05-05 14:28 32.61698 126.29316 35189 ft 521 kts 14°
2026-05-05 14:28 32.68515 126.32242 35186 ft 521 kts 14°
2026-05-05 14:29 32.75326 126.35168 35179 ft 520 kts 14°
2026-05-05 14:29 32.82083 126.38066 35202 ft 519 kts 14°
2026-05-05 14:30 32.88871 126.40991 35191 ft 518 kts 14°
2026-05-05 14:30 32.95637 126.43924 35189 ft 517 kts 14°
2026-05-05 14:31 33.02343 126.46835 35184 ft 517 kts 14°
2026-05-05 14:31 33.09112 126.49748 35181 ft 516 kts 14°
2026-05-05 14:32 33.15876 126.52654 35145 ft 517 kts 14°
2026-05-05 14:32 33.22653 126.55571 35177 ft 517 kts 14°
2026-05-05 14:33 33.29422 126.58496 35177 ft 517 kts 14°
2026-05-05 14:33 33.36141 126.61402 35197 ft 517 kts 14°
2026-05-05 14:34 33.42889 126.64327 35184 ft 515 kts 14°
2026-05-05 14:34 33.49623 126.67265 35181 ft 515 kts 14°
2026-05-05 14:35 33.56412 126.69782 35195 ft 505 kts
2026-05-05 14:35 33.63272 126.70621 35185 ft 498 kts 359°
2026-05-05 14:36 33.70166 126.71346 35179 ft 497 kts 359°
2026-05-05 14:36 33.77039 126.72081 35171 ft 494 kts 359°
2026-05-05 14:37 33.83833 126.72809 35169 ft 492 kts 359°
2026-05-05 14:37 33.90654 126.73526 35172 ft 492 kts 359°
2026-05-05 14:38 33.97411 126.74226 35192 ft 492 kts 359°
2026-05-05 14:38 34.04222 126.74935 35167 ft 492 kts 359°
2026-05-05 14:39 34.11042 126.75646 35168 ft 492 kts 359°
2026-05-05 14:39 34.17857 126.76360 35189 ft 492 kts 359°
2026-05-05 14:40 34.24620 126.77076 35187 ft 491 kts 359°
2026-05-05 14:40 34.31419 126.77797 35183 ft 490 kts 359°
2026-05-05 14:41 34.38211 126.78526 35193 ft 490 kts 360°
2026-05-05 14:41 34.44990 126.79246 35183 ft 489 kts 360°
2026-05-05 14:42 34.51762 126.79966 35175 ft 488 kts 360°
2026-05-05 14:42 34.58471 126.80684 35193 ft 487 kts
2026-05-05 14:43 34.65223 126.81402 35179 ft 486 kts
2026-05-05 14:43 34.71956 126.82115 35177 ft 485 kts
2026-05-05 14:44 34.78682 126.82839 35185 ft 485 kts
2026-05-05 14:44 34.85353 126.83561 35178 ft 484 kts
2026-05-05 14:45 34.92061 126.84290 35173 ft 484 kts
2026-05-05 14:45 34.98764 126.85008 35173 ft 483 kts
2026-05-05 14:46 35.05459 126.85722 35170 ft 483 kts
2026-05-05 14:46 35.12108 126.86441 35171 ft 483 kts
2026-05-05 14:47 35.18794 126.87178 35184 ft 482 kts
2026-05-05 14:47 35.25485 126.87906 35176 ft 481 kts
2026-05-05 14:48 35.32108 126.88620 35173 ft 481 kts
2026-05-05 14:48 35.38766 126.89344 35176 ft 480 kts
2026-05-05 14:49 35.45422 126.90075 35173 ft 480 kts
2026-05-05 14:49 35.52072 126.90805 35168 ft 479 kts
2026-05-05 14:50 35.58670 126.91532 35176 ft 478 kts
2026-05-05 14:50 35.65252 126.92250 35171 ft 477 kts
2026-05-05 14:51 35.71858 126.92965 35163 ft 476 kts
2026-05-05 14:51 35.78460 126.93692 35168 ft 476 kts
2026-05-05 14:52 35.85046 126.94426 35158 ft 475 kts
2026-05-05 14:52 35.91558 126.95142 35152 ft 474 kts
2026-05-05 14:53 35.98124 126.95861 35163 ft 473 kts
2026-05-05 14:53 36.03567 126.96468 35158 ft 472 kts